Simultaneous Nadir Overpasses (SNOs) Predictions

Prediction of SNOs between NOAA-19 and NPP Satellite Orbit:

Table of predicted SNOs for the next 14.0 days since TLE Epoch: 8/14/2020
Index Date (NOAA-19) Time (NOAA-19) Lat,Lon (NOAA-19) SZA (NOAA-19 ) Date (NPP) Time (NPP) Lat,Lon (NPP) SZA (NPP ) Distance(km) Time Diff (sec)
1 08/28/2020 08:03:18 -79.11,-152.42 108.73 08/28/2020 08:04:30 -79.10,-152.41 108.77 1.32 72
2 08/28/2020 08:54:21 79.12, 14.86 71.29 08/28/2020 08:55:15 79.10, 14.92 71.24 2.40 54
3 08/28/2020 09:45:18 -79.13,-177.79 108.71 08/28/2020 09:46:00 -79.10,-177.80 108.74 2.83 42
4 08/28/2020 10:36:21 79.14, -10.50 71.31 08/28/2020 10:36:45 79.10, -10.47 71.27 3.67 24
5 08/28/2020 11:27:19 -79.11, 156.59 108.68 08/28/2020 11:27:31 -79.14, 156.56 108.66 3.10 12
6 08/28/2020 12:18:22 79.12, -36.12 71.34 08/28/2020 12:18:16 79.14, -36.12 71.35 2.20 6
7 08/28/2020 13:09:19 -79.13, 131.23 108.66 08/28/2020 13:09:01 -79.14, 131.16 108.63 1.97 18
8 08/28/2020 14:00:22 79.14, -61.48 71.36 08/28/2020 13:59:46 79.14, -61.51 71.38 0.92 36
9 08/28/2020 14:51:19 -79.15, 105.87 108.63 08/28/2020 14:50:31 -79.15, 105.77 108.60 1.96 48
10 08/28/2020 15:42:22 79.15, -86.84 71.38 08/28/2020 15:41:16 79.15, -86.91 71.41 1.73 66
